Flag for United Kingdom Weather past 2 weeks in Belfast, Northern Ireland, United Kingdom

Now
50 °F

Scattered showers. Scattered clouds.


Feels Like: 43 °F
Forecast: 45 / 54 °F
Wind: 22 mph from Northwest

Location: Belfast / Harbour

Current Time: Oct 21, 2014 at 12:12:28 PM

Latest Report: Oct 21, 2014 at 11:50 AM


Visibility: N/A

Pressure: 29.68 "Hg

Humidity: 67%

Dew point: 39 °F

Location of BelfastLocation

Historic Weather in Belfast — Graph

°F

Belfast temperature yesterday

Maximum temperature yesterday: 57 °F (at 2:20 PM)
Minimum temperature yesterday: 52 °F (at 6:20 AM)
Average temperature yesterday: 55 °F

Past Weeks' High & Low Weather Summary

 TemperatureHumidityPressure
High64 °F (Oct 18, 12:20 PM)100% (Oct 7, 7:50 AM)29.92 "Hg (Oct 7, 7:50 AM)
Low39 °F (Oct 8, 6:20 AM)55% (Oct 7, 5:20 PM)29.09 "Hg (Oct 8, 4:50 PM)
Average53 °F82%29.56 "Hg
* Reported Oct 6 10:20 AM — Oct 21 10:50 AM, Belfast, Weather by CustomWeather, © 2014

Note: Actual official high and low records may vary slightly from our data, if they occured in-between our weather recording intervals... More about our weather records

Advertising

Belfast weather history for previous 24 hours

 ConditionsComfort  
Time TempWeatherWind HumidityBarometerVisibility
10:50 AM
Oct 21
48 °FPassing clouds.22 mph71%29.62 "HgN/A
10:20 AM46 °FScattered showers. Passing clouds.26 mph76%29.59 "HgN/A
9:50 AM48 °FScattered showers. Scattered clouds.23 mph76%29.59 "HgN/A
9:20 AM48 °FSprinkles. Passing clouds.22 mph76%29.56 "HgN/A
8:50 AM48 °FPassing clouds.18 mph71%29.53 "HgN/A
8:20 AM48 °FSprinkles. Passing clouds.18 mph71%29.50 "HgN/A
7:50 AM46 °FScattered showers. Passing clouds.24 mph76%29.47 "HgN/A
7:20 AM48 °FScattered showers. Passing clouds.17 mph76%29.45 "HgN/A
6:50 AM48 °FScattered showers. Passing clouds.17 mph76%29.45 "HgN/A
6:20 AM48 °FPassing clouds.17 mph76%29.42 "HgN/A
8:50 PM
Oct 20
55 °FSprinkles. Partly cloudy.18 mph88%29.53 "HgN/A
8:20 PM57 °FPartly cloudy.17 mph82%29.56 "HgN/A
7:50 PM57 °FPartly cloudy.16 mph82%29.59 "HgN/A
7:20 PM55 °FPartly cloudy.18 mph82%29.62 "HgN/A
6:50 PM55 °FBroken clouds.17 mph82%29.62 "HgN/A
6:20 PM55 °FBroken clouds.15 mph82%29.65 "HgN/A
5:50 PM55 °FScattered showers. Broken clouds.16 mph88%29.68 "HgN/A
5:20 PM55 °FScattered showers. Broken clouds.16 mph88%29.68 "HgN/A
4:50 PM55 °FSprinkles. Scattered clouds.17 mph88%29.71 "Hg4 mi
4:20 PM57 °FScattered showers. Scattered clouds.15 mph77%29.71 "HgN/A
3:50 PM57 °FScattered clouds.15 mph72%29.71 "HgN/A
3:20 PM57 °FScattered clouds.16 mph72%29.74 "HgN/A
2:50 PM57 °FScattered clouds.15 mph72%29.74 "HgN/A
2:20 PM57 °FBroken clouds.13 mph72%29.77 "HgN/A
1:50 PM55 °FBroken clouds.13 mph77%29.77 "HgN/A
1:20 PM55 °FBroken clouds.14 mph77%29.80 "HgN/A
12:50 PM55 °FBroken clouds.14 mph77%29.80 "HgN/A
12:20 PM55 °FBroken clouds.14 mph77%29.80 "HgN/A
Weather by CustomWeather, © 2014

See weather overviewHow to use our weather pages